Hourly Data Report for October 06, 2017

All times are specified in Local Standard Time (LST). Add 1 hour to adjust for Daylight Saving Time where and when it is observed.

BUCTOUCHE CDA CS
NEW BRUNSWICK

46°25'49.006" N
64°46'05.009" W
35.90 m
8100593
71666
ABT

Download Data

Hourly Data (October 2017)
Hourly Data Report for October 6, 2017
Temp Definition
°C
Dew Point Temp Definition
°C
Rel Hum Definition
%
Wind Dir Definition
10's deg

Wind Spd Definition
km/h
Visibility Definition
km
Stn Press Definition
kPa
Hmdx Definition


Wind Chill Definition


Weather Definition


TIME
00:00 12.5 7.0 69 22 7   100.68     LegendNANA
01:00 13.5 7.0 65 23 13   100.72     LegendNANA
02:00 13.3 6.5 64 22 11   100.69     LegendNANA
03:00 11.3 6.4 72 22 10   100.70     LegendNANA
04:00 10.4 6.4 76 23 7   100.75     LegendNANA
05:00 11.7 6.6 70 27 14   100.82     LegendNANA
06:00 10.3 6.4 77 26 7   100.87     LegendNANA
07:00 9.2 6.2 82 23 8   100.96     LegendNANA
08:00 10.0 6.5 79 25 6   101.05     LegendNANA
09:00 12.6 6.1 65 27 9   101.10     LegendNANA
10:00 13.7 5.1 56 28 13   101.10     LegendNANA
11:00 15.4 6.4 55 29 10   101.05     LegendNANA
12:00 17.0 6.4 50 23 13   100.99     LegendNANA
13:00 17.0 5.4 46 25 14   100.96     LegendNANA
14:00 16.5 4.4 45 25 14   100.94     LegendNANA
15:00 15.3 6.2 55 27 8   100.95     LegendNANA
16:00 17.1 4.4 43 25 14   100.94     LegendNANA
17:00 15.7 4.9 49 24 8   100.95     LegendNANA
18:00 13.4 5.6 59 22 5   101.03     LegendNANA
19:00 10.3 5.6 73 22 2   101.09     LegendNANA
20:00 9.1 5.0 76 23 7   101.15     LegendNANA
21:00 8.3 4.9 79 24 3   101.20     LegendNANA
22:00 8.2 5.0 80 23 5   101.31     LegendNANA
23:00 6.3 3.8 84 22 7   101.37     LegendNANA

Notes on Data Quality.

Legend

  • E = Estimated
  • M = Missing
  • NA = Not Available
  • ‡ = Partner data that is not subject to review by the National Climate Archives
Date modified: